Regional Weather Roundup
Issued by NWS

Home | Current Version | Previous Version | Graphics & Text | Print | Product List | Glossary On
Versions: 1 2 3 4 5 6 7 8 9 10 11 12 13 14 15 16 17 18 19 20 21 22 23 24 25 26 27 28 29 30 31 32 33 34 35 36 37 38 39 40 41 42 43 44 45 46 47 48 49 50
000
ASUS43 KBIS 310510
RWRND

NORTH DAKOTA REGIONAL WEATHER ROUNDUP
NATIONAL WEATHER SERVICE BISMARCK ND
1200 AM CDT FRI JUL 31 2015

NOTE: "FAIR" INDICATES FEW OR NO CLOUDS BELOW 12,000 FEET WITH NO
SIGNIFICANT WEATHER AND/OR OBSTRUCTIONS TO VISIBILITY.


NDZ001>003-009>011-017-310600-
NORTHWEST NORTH DAKOTA

CITY           SKY/WX    TMP DP  RH WIND       PRES   REMARKS
WILLISTON      CLEAR     59  51  75 N3        30.16S
MINOT          CLEAR     61  48  62 SW7       30.12S
MINOT AFB      CLEAR     55  53  91 W9        30.11S
$$

NDZ018>021-031>035-040>046-310600-
SOUTHWEST NORTH DAKOTA

CITY           SKY/WX    TMP DP  RH WIND       PRES   REMARKS
BISMARCK       CLEAR     60  52  74 CALM      30.15S
DICKINSON      CLEAR     60  48  64 S5        30.19R
GARRISON         N/A     58  52  80 NW8       30.15S
HETTINGER ARPT CLEAR     53  47  79 W3        30.21R
$$

NDZ004>008-012>016-024-026-027-054-310600-
NORTHEAST NORTH DAKOTA

CITY           SKY/WX    TMP DP  RH WIND       PRES   REMARKS
GRAND FORKS    CLEAR     58  52  80 W8        30.02S
GRND FRKS AFB  CLEAR     60  52  73 W6        30.03S
DEVILS LAKE    CLEAR     63  50  63 W9        30.07S
$$

NDZ022-023-025-028>030-036>039-047>053-310600-
SOUTHEAST NORTH DAKOTA

CITY           SKY/WX    TMP DP  RH WIND       PRES   REMARKS
FARGO          CLEAR     63  55  75 W6        30.05S
JAMESTOWN      CLEAR     62  53  72 NW9       30.10S
$$



USA.gov is the U.S. government's official web portal to all federal, state and local government web resources and services.